Location: Erlenbrunn
(49.1717°N, 7.6142°E)
Time: 10:08:29
(UTC+00:00)

Cosmos 389 Rocket - Pass Details

Date: 25 November 2020
Orbit: 442 x 473 km, 81.1° (Epoch: 25 January)

Event Time Altitude Azimuth Distance (km) Brightness Sun altitude
Rises 16:10:28 0° 147° (SSE) 2,438 6.1 -5.5°
Reaches altitude 10° 16:13:15 10° 122° (ESE) 1,569 4.8 -5.9°
Maximum altitude 16:15:08 14° 88° (E) 1,337 4.2 -6.2°
Drops below altitude 10° 16:17:00 10° 55° (NE) 1,573 4.5 -6.5°
Enters shadow 16:17:50 - 45° (NE) 1,791 4.8 -6.6°
